RAPIDEYE 5

导读 | 豆包AI

RAPIDEYE 5是德国RAPIDEYE卫星星座的第五颗卫星,于2008年8月29日发射升空。它属于商业多光谱遥感卫星,运行在约620千米高度的太阳同步轨道,携带多台相机,可提供5米分辨率影像,具备独特的“红边”波段,在农业监测、植被观测等领域广泛应用。该星座设计寿命7年,实际超期服役后于2020年正式退役。

基本信息
目录编号:
33313
目录名称:
RAPIDEYE 5
国际标识:
2008-040B
轨道中心:
EARTH
卫星名称:
RAPIDEYE 5
卫星全名:
--
卫星状态:
在轨 (已飞行6453 天)
发射日期:
2008-08-29 UTC
国别 :
德国 (DE)
星等 :
--
轨道信息
数据来源 国际轨道数据
星历时间: 2026-04-30T20:35:01+0800
5小时前
查看轨道信息
半长轴: 6937.686km
偏心率: 0.0009342
轨道倾角: 97.390°
近地点辐角 265.434°
升交点赤经 140.844°
平近点角 94.582°
近地点: 553.067km
远地点: 566.031km
周期: 95.848分钟
每日圈数: 15.023835
详细信息
使用方式:
暂无
2D轨道图
3D轨道图
轨道高度分析图
轨道倾角分析图
轨道综合分析图
查看轨道综合分析图